Regional Weather Roundup
Issued by NWS Northern Indiana

Home | Current Version | Previous Version | Text Only | Print | Product List | Glossary Off
Versions: 1 2 3 4 5 6 7 8 9 10 11 12 13 14 15 16 17 18 19 20 21 22 23 24 25 26 27 28 29 30 31 32 33 34 35 36 37 38 39 40 41 42 43 44 45 46 47 48 49 50

905
ASUS43 KIWX 262000
RWRIWX

KIWX WEATHER ROUNDUP
NATIONAL WEATHER SERVICE NORTHERN INDIANA
300 PM EST SUN FEB 26 2017

NOTE: "FAIR" INDICATES FEW OR NO CLOUDS BELOW 12,000 FEET WITH NO
SIGNIFICANT WEATHER AND/OR OBSTRUCTIONS TO VISIBILITY.

* THESE STATIONS ARE NOT UNDER NWS QUALITY CONTROL. THEY ALSO MAY NOT
  REPORT WEATHER SUCH AS PRECIPITATION OR FOG.

INZ001>027-262100-
NORTHERN INDIANA

CITY           SKY/WX    TMP DP  RH WIND       PRES   REMARKS
GARY*          MOSUNNY   48  12  23 SW28G41   29.97F
KNOX*          MOSUNNY   45 -11   9 SW22G35   29.99F
SOUTH BEND     SUNNY     45  20  36 SW18G32   29.98F
GOSHEN         SUNNY     44  21  40 SW22G29   30.00F
ANGOLA*        MOSUNNY   41  27  56 SW18      29.99F
FORT WAYNE     MOSUNNY   41  22  46 SW18G26   30.05F
PERU/GRISSOM   SUNNY     46  21  37 SW26      30.02F

$$
INZ028>050-262100-
CENTRAL INDIANA

CITY           SKY/WX    TMP DP  RH WIND       PRES   REMARKS
LAFAYETTE      SUNNY     46  18  32 SW18G28   30.05F
KOKOMO*        SUNNY     44  23  43 S20G29    30.06F
MUNCIE*        SUNNY     45  18  34 SW17G24   30.08F
INDIANAPOLIS   PTSUNNY   45  13  27 SW18      30.10F

$$
MIZ043>046-050>051-056>058-064>065-071>073-077>080-262100-
SOUTHWEST LOWER MICHIGAN

CITY           SKY/WX    TMP DP  RH WIND       PRES   REMARKS
BATTLE CREEK   CLOUDY    40  21  46 SW23G35   29.95S
BENTON HARBOR  SUNNY     45  18  34 SW24G36   29.95F
COLDWATER*     MOSUNNY   42  18  38 SW14G21   29.97F
HILLSDALE*     CLOUDY    37  19  48 S17G29    29.97F
HOLLAND        MOSUNNY   41  23  48 SW26G41   29.92S
GRAND RAPIDS   PTSUNNY   39  22  50 SW21G30   29.91S
KALAMAZOO      PTSUNNY   41  20  43 SW21G32   29.95F
STURGIS*       SUNNY     41  23  47 SW20G30   29.98F
THREE RIVERS*  FAIR      41  21  44 SW21G31   29.97F

$$
OHZ001>008-015>018-024>025-262100-
NORTHWEST OHIO

CITY           SKY/WX    TMP DP  RH WIND       PRES   REMARKS
DEFIANCE       PTSUNNY   39  20  46 SW14G22   30.05F
FINDLAY        SUNNY     43  20  39 SW22      30.07F
TOLEDO EXPRESS SUNNY     41  18  39 SW20G29   30.04F
TOLEDO METCALF SUNNY     42  20  41 SW22      30.06F
LIMA           SUNNY     42  21  43 SW22G28   30.07F

$$
AND FOR LAKE MICHIGAN COASTAL AND OPEN LAKE BUOY OBSERVATIONS

STATION/POSITION TEMP    WIND        PRES    VSBY  WAVE
                 AIR SEA DIR/SP/G                  HT/PER
                 (F)     (DEG/KT/KT) (MB)    (MI)  (FT/S)
CALUMET HARBOR    45     220/ 16/ 22 1013.5F
MICHIGAN CITY     43     200/ 28/ 32   N/A
BURNS HARBOR      44     210/ 28/ 34 1014.6F
SAINT JOSEPH      40     220/ 20/ 25 1014.6

$$
&&




USA.gov is the U.S. government's official web portal to all federal, state and local government web resources and services.